EW9994 Weather Reports


time (UTC)temp
C
wind
direction
speed
KPH
gust
KPH
rain 1hr
cm
rain 24hr
cm
rain mn
cm
humidity
%
barometer
mb
20190618170909 26 41 4.8 11.3 0.00 0.00 0.00 68 1013.1
20190618170408 26 21 8.0 12.9 0.00 0.00 0.00 67 1013.1
20190618164408 26 75 3.2 3.2 0.00 0.00 0.00 66 1013.1
20190618163908 26 71 1.6 4.8 0.00 0.00 0.00 66 1013.1
20190618161908 26 2 4.8 9.7 0.00 0.00 0.00 65 1012.9
20190618154908 27 49 4.8 8.0 0.00 0.00 0.00 63 1012.7
20190618154408 27 42 4.8 11.3 0.00 0.00 0.00 62 1012.8
20190618153908 27 42 8.0 12.9 0.00 0.00 0.00 62 1012.7
20190618153408 27 34 8.0 12.9 0.00 0.00 0.00 62 1012.7
20190618151909 28 14 8.0 11.3 0.00 0.00 0.00 59 1012.8
20190618144408 31 229 3.2 4.8 0.00 0.00 0.00 44 1012.8
20190618143407 31 200 1.6 3.2 0.00 0.00 0.00 49 1013.0
20190618141909 31 201 0.0 1.6 0.00 0.00 0.00 50 1013.1
20190618141409 30 235 3.2 4.8 0.00 0.00 0.00 46 1013.2
20190618140910 30 187 3.2 4.8 0.00 0.00 0.00 49 1013.2
20190618134908 28 52 4.8 4.8 0.00 0.00 0.00 60 1013.3
20190618134408 28 52 3.2 4.8 0.00 0.00 0.00 59 1013.4
20190618133408 28 65 4.8 9.7 0.00 0.00 0.00 55 1013.5
20190618131408 30 43 0.0 4.8 0.00 0.00 0.00 46 1013.6
20190618124408 31 326 4.8 9.7 0.00 0.00 0.00 45 1013.8
20190618123908 30 219 4.8 12.9 0.00 0.00 0.00 46 1013.8
20190618123408 30 292 1.6 19.3 0.00 0.00 0.00 45 1013.8
20190618121908 30 229 9.7 16.1 0.00 0.00 0.00 48 1014.0
20190618120908 30 246 11.3 19.3 0.00 0.00 0.00 48 1014.0
20190618120408 31 247 8.0 16.1 0.00 0.00 0.00 45 1014.0
20190618114909 31 163 11.3 19.3 0.00 0.00 0.00 43 1014.2
20190618114408 31 221 8.0 14.5 0.00 0.00 0.00 43 1014.2
20190618113908 31 252 8.0 11.3 0.00 0.00 0.00 43 1014.2
20190618111908 30 223 4.8 8.0 0.00 0.00 0.00 46 1014.3
20190618111410 30 263 4.8 9.7 0.00 0.00 0.00 44 1014.4
20190618110909 30 265 3.2 4.8 0.00 0.00 0.00 44 1014.4
20190618110408 30 188 1.6 12.9 0.00 0.00 0.00 46 1014.5
20190618104408 30 240 9.7 14.5 0.00 0.00 0.00 47 1014.6
20190618103909 30 180 4.8 12.9 0.00 0.00 0.00 48 1014.6
20190618103408 30 140 4.8 11.3 0.00 0.00 0.00 47 1014.7
20190618101908 30 238 3.2 8.0 0.00 0.00 0.00 48 1014.7
20190618101410 30 104 1.6 4.8 0.00 0.00 0.00 51 1014.7
20190618100408 29 233 4.8 16.1 0.00 0.00 0.00 47 1014.8
20190618094908 29 158 3.2 11.3 0.00 0.00 0.00 49 1014.8
20190618093908 29 213 6.4 9.7 0.00 0.00 0.00 50 1014.8
20190618093408 28 122 4.8 11.3 0.00 0.00 0.00 50 1014.8
20190618091908 28 240 1.6 8.0 0.00 0.00 0.00 50 1014.9
20190618090908 28 195 4.8 8.0 0.00 0.00 0.00 50 1014.9
20190618090407 28 239 6.4 9.7 0.00 0.00 0.00 50 1014.9
20190618084908 27 206 3.2 4.8 0.00 0.00 0.00 52 1014.9
20190618084408 27 176 3.2 4.8 0.00 0.00 0.00 54 1014.9
20190618083908 27 157 4.8 8.0 0.00 0.00 0.00 53 1014.9
20190618081908 27 144 6.4 8.0 0.00 0.00 0.00 55 1015.0
20190618081408 26 192 4.8 4.8 0.00 0.00 0.00 59 1015.0
20190618080909 26 192 3.2 4.8 0.00 0.00 0.00 57 1014.9
20190618080408 26 204 3.2 8.0 0.00 0.00 0.00 59 1015.0
20190618073908 25 179 3.2 4.8 0.00 0.00 0.00 61 1015.0
20190618073408 25 194 4.8 4.8 0.00 0.00 0.00 61 1015.0
20190618071408 24 126 3.2 4.8 0.00 0.00 0.00 63 1015.1
20190618064907 24 127 1.6 1.6 0.00 0.00 0.00 62 1015.2
20190618064407 23 121 0.0 3.2 0.00 0.00 0.00 65 1015.2
20190618063908 23 124 1.6 3.2 0.00 0.00 0.00 66 1015.2
20190618063408 23 124 1.6 3.2 0.00 0.00 0.00 64 1015.2
20190618061907 22 124 1.6 1.6 0.00 0.00 0.00 66 1015.2
20190618061408 23 130 1.6 3.2 0.00 0.00 0.00 67 1015.2
20190618060908 23 97 1.6 3.2 0.00 0.00 0.00 68 1015.2
20190618060407 22 97 0.0 3.2 0.00 0.00 0.00 66 1015.2
20190618054908 21 58 0.0 4.8 0.00 0.00 0.00 71 1015.1
20190618054407 21 55 1.6 3.2 0.00 0.00 0.00 74 1015.2
20190618053408 20 43 4.8 9.7 0.00 0.00 0.00 74 1015.1
20190618051908 20 39 8.0 9.7 0.00 0.00 0.00 74 1015.0
20190618051409 20 30 6.4 11.3 0.00 0.00 0.00 74 1015.0
20190618050908 20 20 8.0 11.3 0.00 0.00 0.00 74 1015.0
20190618043907 18 29 11.3 12.9 0.00 0.00 0.00 75 1014.8
20190618043407 18 27 8.0 12.9 0.00 0.00 0.00 74 1014.7
20190618041907 18 58 1.6 4.8 0.00 0.00 0.00 74 1014.5
20190618041407 18 7 3.2 9.7 0.00 0.00 0.00 74 1014.5
20190618040907 18 63 8.0 9.7 0.00 0.00 0.00 74 1014.5
20190618034907 18 21 8.0 11.3 0.00 0.00 0.00 74 1014.5
20190618033907 18 20 8.0 9.7 0.00 0.00 0.00 74 1014.5
20190618033407 18 13 8.0 12.9 0.00 0.00 0.00 73 1014.5
20190618031907 18 59 4.8 12.9 0.00 0.00 0.00 72 1014.4
20190618031408 18 22 4.8 11.3 0.00 0.00 0.00 73 1014.4
20190618030407 18 18 4.8 9.7 0.00 0.00 0.00 72 1014.4
20190618024907 19 40 4.8 9.7 0.00 0.00 0.00 71 1014.2
20190618024408 19 0 1.6 3.2 0.00 0.00 0.00 71 1014.3
20190618023907 19 356 1.6 3.2 0.00 0.00 0.00 71 1014.3
20190618023407 19 63 3.2 9.7 0.00 0.00 0.00 71 1014.2
20190618021907 19 30 6.4 9.7 0.00 0.00 0.00 71 1014.2
20190618021407 20 60 4.8 14.5 0.00 0.00 0.00 70 1014.2
20190618020911 20 29 11.3 14.5 0.00 0.00 0.00 71 1014.2
20190618014907 19 38 12.9 16.1 0.00 0.00 0.00 72 1014.3
20190618014407 19 34 11.3 16.1 0.00 0.00 0.00 72 1014.3
20190618011907 19 28 4.8 9.7 0.00 0.00 0.00 72 1014.4
20190618011407 19 27 6.4 9.7 0.00 0.00 0.00 73 1014.5
20190618004410 19 66 1.6 4.8 0.00 0.00 0.00 73 1014.7
20190618003411 19 4 1.6 8.0 0.00 0.00 0.00 73 1014.7
20190618001410 20 30 8.0 12.9 0.00 0.00 0.00 72 1014.8
20190618000908 20 22 8.0 14.5 0.00 0.00 0.00 72 1014.8
20190617233907 19 38 8.0 11.3 0.00 0.00 0.00 73 1015.1
20190617233407 19 10 3.2 12.9 0.00 0.00 0.00 72 1015.1
20190617231907 19 39 4.8 9.7 0.00 0.00 0.00 73 1015.1
20190617230907 20 77 0.0 19.3 0.00 0.00 0.00 71 1015.0
20190617224407 20 31 8.0 11.3 0.00 0.00 0.00 72 1014.6
20190617223907 20 22 8.0 14.5 0.00 0.00 0.00 71 1014.7
20190617223407 20 44 8.0 12.9 0.00 0.00 0.00 71 1014.7
20190617221907 20 36 9.7 16.1 0.00 0.00 0.00 71 1014.6
20190617221408 20 44 8.0 14.5 0.00 0.00 0.00 70 1014.6
20190617220907 20 18 8.0 16.1 0.00 0.00 0.00 70 1014.6
20190617220407 20 16 4.8 19.3 0.00 0.00 0.00 71 1014.6
20190617214407 20 26 14.5 19.3 0.00 0.00 0.00 73 1014.5
20190617213907 20 44 9.7 19.3 0.00 0.00 0.00 72 1014.4
20190617211907 20 28 11.3 16.1 0.00 0.00 0.00 75 1014.4
20190617211406 20 29 12.9 16.1 0.00 0.00 0.00 75 1014.3
20190617210907 20 36 9.7 14.5 0.00 0.00 0.00 74 1014.3
20190617210407 21 31 11.3 19.3 0.00 0.00 0.00 74 1014.3
20190617204907 21 38 6.4 16.1 0.00 0.00 0.00 74 1014.4
20190617204407 21 47 6.4 14.5 0.00 0.00 0.00 75 1014.4
20190617203907 21 21 8.0 11.3 0.00 0.00 0.00 75 1014.5
20190617203408 21 20 8.0 12.9 0.00 0.00 0.00 75 1014.5
20190617201907 21 37 8.0 19.3 0.00 0.00 0.00 73 1014.5
20190617201407 21 52 1.6 4.8 0.00 0.00 0.00 73 1014.4
20190617200907 21 15 4.8 8.0 0.00 0.00 0.00 73 1014.4
20190617194407 22 21 11.3 14.5 0.00 0.00 0.00 71 1014.1
20190617193906 22 48 12.9 20.9 0.00 0.00 0.00 71 1013.9
20190617191906 23 37 9.7 16.1 0.00 0.00 0.00 70 1013.7
20190617191407 23 36 8.0 12.9 0.00 0.00 0.00 70 1013.7
20190617183907 25 0 4.8 12.9 0.00 0.00 0.00 62 1013.6
20190617181408 26 350 6.4 12.9 0.00 0.00 0.00 56 1013.4
20190617180907 26 1 4.8 8.0 0.00 0.00 0.00 57 1013.4
20190617174907 27 50 8.0 14.5 0.00 0.00 0.00 56 1013.3
20190617173907 27 334 3.2 4.8 0.00 0.00 0.00 57 1013.1
20190617173407 27 0 3.2 9.7 0.00 0.00 0.00 58 1013.3